Regional Weather Roundup
Issued by NWS Boston, MA

Current Version | Previous Version | Text Only | Print | Product List | Glossary Off
Versions: 1 2 3 4 5 6 7 8 9 10 11 12 13 14 15 16 17 18 19 20 21 22 23 24 25 26 27 28 29 30 31 32 33 34 35 36 37 38 39 40 41 42 43 44 45 46 47 48 49 50
071 ASUS41 KBOX 151310 RWRBOX REGIONAL WEATHER ROUNDUP NATIONAL WEATHER SERVICE TAUNTON MA 800 AM EST FRI DEC 15 2017 NOTE: "FAIR" INDICATES FEW OR NO CLOUDS BELOW 12,000 FEET WITH NO SIGNIFICANT WEATHER AND/OR OBSTRUCTIONS TO VISIBILITY. MAZALL-151400- EASTERN MASSACHUSETTS CITY SKY/WX TMP DP RH WIND PRES REMARKS BOSTON CLOUDY 19 9 65 SW9 30.09R WCI 8 BEVERLY MOCLDY 16 8 71 S3 30.07R LAWRENCE CLEAR 15 7 70 S5 30.08R WCI 8 BEDFORD PTCLDY 12 6 77 SW3 30.07R BLUE HILL N/A 15 6 67 S7 30.03R WCI 5 NORWOOD CLOUDY 16 10 77 SE3 30.09S MARSHFIELD CLEAR 16 9 73 CALM 30.10R PLYMOUTH PTCLDY 12 7 80 CALM 30.09S TAUNTON CLOUDY 10 8 92 CALM 30.09S NEW BEDFORD PTCLDY 9 8 96 CALM 30.09F $$ MAZALL-151400- CAPE COD AND THE ISLANDS CITY SKY/WX TMP DP RH WIND PRES REMARKS FALMOUTH CLEAR 14 7 73 CALM 30.09F HYANNIS CLEAR 17 8 67 CALM 30.08S CHATHAM CLEAR 15 9 76 CALM 30.10S PROVINCETOWN CLEAR 23 15 71 W7 30.10R WCI 15 NANTUCKET CLOUDY 20 11 68 CALM 30.09S MARTHAS VNYRD CLEAR 7 5 91 CALM 30.10R $$ MAZALL-151400- CENTRAL AND WESTERN MASSACHUSETTS CITY SKY/WX TMP DP RH WIND PRES REMARKS WORCESTER CLOUDY 14 6 70 W8 30.00R WCI 3 FITCHBURG CLOUDY 18 8 65 NW7 30.05R WCI 9 ORANGE NOT AVBL SPRINGFIELD MOCLDY 12 8 83 CALM 30.07R WESTFIELD PTCLDY 12 9 87 CALM 30.08R NORTH ADAMS CLOUDY 6 4 91 CALM 30.05R PITTSFIELD CLOUDY 5 0 79 CALM 29.98S $$ RIZALL-151400- RHODE ISLAND CITY SKY/WX TMP DP RH WIND PRES REMARKS PROVIDENCE MOCLDY 14 6 70 W3 30.10S NEWPORT CLEAR 13 9 84 CALM 30.09S BLOCK ISLAND CLEAR 22 14 71 N3 30.12R SMITHFIELD CLOUDY 11 7 84 CALM 30.06S WESTERLY CLOUDY 12 7 80 CALM 30.12R $$ CTZALL-151400- CONNECTICUT CITY SKY/WX TMP DP RH WIND PRES REMARKS BRADLEY INTL MOCLDY 12 7 80 CALM 30.09R HARTFORD CLOUDY 12 9 87 SE3 30.11S BRIDGEPORT CLOUDY 19 8 62 CALM 30.12R DANBURY CLOUDY 14 8 77 CALM 30.09R GROTON PTCLDY 17 7 64 NW5 30.11R WCI 10 NEW HAVEN CLOUDY 17 8 67 CALM 30.12R CHESTER FAIR 14 5 67 SW5 30.08R WCI 6 MERIDEN CLOUDY 8 5 87 CALM 30.11R WILLIMANTIC PTCLDY 8 5 87 CALM 30.09S OXFORD CLOUDY 9 5 84 CALM 30.06R $$ MEZ002-015-021-024-NHZ003-005-008-011-012-014-VTZ005-008-151400- NORTHERN NEW ENGLAND CITY SKY/WX TMP DP RH WIND PRES REMARKS PORTLAND ME PTCLDY 8 2 76 CALM 30.03R BANGOR ME PTCLDY 7 -1 70 SW8 29.99R WCI -6 CONCORD NH CLEAR 1 -3 83 CALM 30.04R MANCHESTER NH MOCLDY 11 5 77 SW5 30.03R WCI 3 NASHUA NH PTCLDY 4 2 91 CALM 30.06R PORTSMOUTH NH PTCLDY 11 2 68 SW5 30.04R WCI 3 JAFFREY NH CLEAR 4 2 91 S7 29.99R WCI -8 KEENE NH PTCLDY -2 -5 87 CALM 30.07R BURLINGTON VT PTCLDY 0 -5 79 CALM 30.02S MT. WASHINGTON PTCLDY -8 -13 77 W61 N/A WCI -44 $$ NYZ052-076-151400- EASTERN NEW YORK CITY SKY/WX TMP DP RH WIND PRES REMARKS ALBANY CLOUDY 11 5 77 CALM 30.08R NEW YORK CITY CLOUDY 24 9 52 N3 30.11S $$ ANZALL-151400- MARINE OBSERVATIONS STATION/POSITION TIME TEMP WIND PRES VSBY WAVE AIR SEA DIR/SP/G HT/PER (UTC) (F) (DEG/KT/KT) (MB) (MI) (FT/S) BOSTON BUOY 1150 24 47 270/ 10/ 14 1017.7 2/ 3 BUZZARDS BAY 1200 22 340/ 7/ 8 1019.7R NANTUCKET SOUND 1150 23 42 320/ 12/ 16 1018.8 1/ 3 MASS BAY-STELLWA 1204 23 47 300/ 14/ 17 1017.6R 2/ 3 ISLE OF SHOALS 1200 18 270/ 14/ 16 1017.1R S OF BLOCK IS 1243 53 N/A 4/ 8 $$ ......................KEY......................... SKY/WX - SKY CONDITION/PRESENT WEATHER TMP - TEMPERATURE IN FAHRENHEIT DWPT - DEWPOINT IN FAHRENHEIT RH - RELATIVE HUMIDITY IN PERCENT WIND - DIRECTION AND SPEED IN MPH PRES - MEAN SEA LEVEL PRESSURE IN INCHES OF HG WCI - WIND CHILL INDEX VSB - VISIBILITY IN MILES HX - HEAT INDEX TC - TEMPERATURE IN CELSIUS VRB - VARIABLE WIND DIRECTION N/A - NOT AVAILABLE

USA.gov is the U.S. government's official web portal to all federal, state and local government web resources and services.